Back to catalog

OPS 5118

NAVSTAR 6

AliveNavigationHEO
NORAD 11783·PAYLOAD·🇺🇸 United States

Launched Apr 26, 1980 from Vandenberg Space Force Base

Loading…

Next Passes (next 24 hours)

TLE

FreshSource: Space-Track

Epoch: Sep 13, 2026, 16:28 UTC

1 11783U 80032A   26256.68634765  .00000019  00000-0  00000-0 0  9999
2 11783  61.8103 245.4116 0554405  51.3159 124.0461  2.03456063343558

Track OPS 5118 in real time with AllMySat

Download on the App Store